Content
SEND FEEDBACK

Daily
Averages
Monthly
Summary
United States of America

MERIZO, GUAM


Home > North America > United States > Guam
Elevation: 3 meters     Latitude: 13 14N     Longitude: 144 39E

WEATHER
 
SELECT A DAY
Number of Records: 342,166;   Date Range: 1/1/95 - 8/12/14
 
SHARE

PRINT THIS DATA

[ ← Previous Day ]
WEATHER ALMANAC - 29 MARCH, 2014
[ Next Day → ]
[ °F ]   °C
Weather ElementAverageHighLow
Temperature26.4 °C29 °C (11:43 am)24 °C (9:55 pm)
Dewpoint22.7 °C24 °C (5:37 pm)21 °C (3:33 am)
Humidity80 %94 % (9:55 pm)70 % (10:18 am)
Barometer1012.2 hPa1013.9 hPa (10:18 am)1009.8 hPa (3:58 pm)
Wind Speed20.3 km/h29.6 km/h (9:38 pm)
Wind Gust37 km/h (9:38 pm)
Weather ElementAverage
Visibility15.8 km
Wind DirectionENE (53.9 °)

Weather ElementTotal
Precipitation2.79 mm
Cooling Degree Days8.2 (Base 18.3)
Growing Degree Days16.5 (Base 10)
Averaged from 77 records on 29 March, 2014
WEATHER CONDITIONS BREAKOUT
WIND DIRECTION BREAKOUT
WEATHER BY HOUR - 29 MARCH, 2014
[ °F ]   °C
Local TimeTemperatureDewpointHumidityBarometerVisibilityWind DirectionWind SpeedGust SpeedPrecipitationEventsConditions
1:43 AM25 °C22 °C83 %1012.9 hPa16.1 kmNE (50°)18.5 km/hMostly Cloudy
1:48 AM25 °C22 °C83 %1012.5 hPa16.1 kmNE (40°)18.5 km/hMostly Cloudy
1:53 AM25 °C22 °C83 %1012.5 hPa16.1 kmNE (40°)16.7 km/hMostly Cloudy
1:58 AM25.1 °C22 °C83 %1011.5 hPa16.1 kmNE (50°)14.8 km/hMostly Cloudy
2:03 AM25 °C22 °C83 %1012.5 hPa16.1 kmNE (50°)18.5 km/hMostly Cloudy
2:08 AM25 °C22 °C83 %1012.5 hPa16.1 kmNE (50°)16.7 km/hMostly Cloudy
2:41 AM25 °C22 °C83 %1012.2 hPa16.1 kmNE (40°)14.8 km/hLight Drizzle
2:50 AM25 °C22 °C83 %1012.2 hPa16.1 kmNE (50°)18.5 km/hMostly Cloudy
2:55 AM25 °C22 °C83 %1012.5 hPa16.1 kmENE (60°)16.7 km/hMostly Cloudy
2:58 AM25.2 °C21.7 °C81 %1011.5 hPa16.1 kmENE (60°)16.7 km/h0 mmMostly Cloudy
3:08 AM25 °C22 °C83 %1012.5 hPa16.1 kmNE (50°)14.8 km/hMostly Cloudy
3:33 AM25 °C21 °C78 %1012.2 hPa16.1 kmENE (60°)18.5 km/hMostly Cloudy
3:58 AM24.5 °C21.5 °C83 %1011.2 hPa16.1 kmENE (70°)14.8 km/hScattered Clouds
4:58 AM24.3 °C21.6 °C85 %1011.5 hPa16.1 kmENE (70°)16.7 km/hPartly Cloudy
5:58 AM24.4 °C21.2 °C82 %1011.9 hPa16.1 kmENE (60°)16.7 km/hPartly Cloudy
6:58 AM24.9 °C21.4 °C81 %1012.2 hPa16.1 kmENE (60°)16.7 km/hClear
7:58 AM26.4 °C21.7 °C75 %1012.9 hPa16.1 kmENE (60°)18.5 km/hPartly Cloudy
8:58 AM27.5 °C22.6 °C74 %1013.2 hPa16.1 kmENE (70°)18.5 km/hScattered Clouds
9:58 AM28.2 °C22.6 °C71 %1012.9 hPa16.1 kmENE (60°)20.4 km/hPartly Cloudy
10:18 AM28 °C22 °C70 %1013.9 hPa16.1 kmENE (70°)22.2 km/hMostly Cloudy
10:23 AM28 °C23 °C74 %1013.9 hPa16.1 kmENE (60°)18.5 km/hScattered Clouds
10:38 AM28 °C23 °C74 %1013.5 hPa16.1 kmNE (50°)18.5 km/hMostly Cloudy
10:48 AM28 °C23 °C74 %1013.5 hPa16.1 kmNE (50°)22.2 km/hMostly Cloudy
10:53 AM28 °C23 °C74 %1013.5 hPa16.1 kmNE (50°)24.1 km/hMostly Cloudy
10:58 AM27.5 °C22.5 °C74 %1012.9 hPa16.1 kmNE (50°)20.4 km/hMostly Cloudy
11:43 AM29 °C23 °C70 %1012.9 hPa16.1 kmEast (80°)20.4 km/hScattered Clouds
11:58 AM28.5 °C22.6 °C70 %1011.9 hPa16.1 kmENE (70°)20.4 km/hPartly Cloudy
12:58 PM28.8 °C22.8 °C70 %1011.2 hPa16.1 kmNE (50°)22.2 km/hScattered Clouds
1:48 PM28 °C23 °C74 %1011.5 hPa16.1 kmNE (50°)20.4 km/hMostly Cloudy
1:58 PM28.2 °C22.7 °C72 %1010.5 hPa16.1 kmNE (40°)24.1 km/hMostly Cloudy
2:28 PM28 °C22 °C70 %1011.2 hPa16.1 kmENE (60°)20.4 km/hMostly Cloudy
2:38 PM28 °C23 °C74 %1011.2 hPa16.1 kmNE (50°)18.5 km/hMostly Cloudy
2:58 PM27.9 °C22.8 °C74 %1010.2 hPa16.1 kmNE (50°)22.2 km/hMostly Cloudy
3:13 PM28 °C23 °C74 %1011.2 hPa16.1 kmNE (40°)20.4 km/hMostly Cloudy
3:18 PM28 °C23 °C74 %1011.2 hPa16.1 kmNE (50°)20.4 km/hMostly Cloudy
3:23 PM28 °C23 °C74 %1011.2 hPa16.1 kmNE (50°)18.5 km/hMostly Cloudy
3:38 PM28 °C23 °C74 %1010.8 hPa16.1 kmNNE (30°)22.2 km/hMostly Cloudy
3:43 PM28 °C23 °C74 %1010.8 hPa16.1 kmNE (50°)24.1 km/hMostly Cloudy
3:53 PM28 °C23 °C74 %1010.8 hPa16.1 kmNE (40°)20.4 km/hMostly Cloudy
3:58 PM28.1 °C22.7 °C72 %1009.8 hPa16.1 kmENE (60°)22.2 km/hMostly Cloudy
4:03 PM28 °C22 °C70 %1010.8 hPa16.1 kmNNE (30°)20.4 km/hMostly Cloudy
4:08 PM28 °C22 °C70 %1010.8 hPa16.1 kmENE (60°)22.2 km/hMostly Cloudy
4:33 PM27 °C23 °C79 %1010.8 hPa16.1 kmNE (40°)22.2 km/hMostly Cloudy
4:48 PM27 °C23 °C79 %1010.8 hPa16.1 kmNE (50°)22.2 km/hMostly Cloudy
4:53 PM27 °C23 °C79 %1011.2 hPa16.1 kmNE (50°)22.2 km/hMostly Cloudy
4:58 PM27.5 °C22.7 °C75 %1010.2 hPa16.1 kmENE (60°)18.5 km/hMostly Cloudy
5:03 PM27 °C23 °C79 %1011.2 hPa16.1 kmNE (50°)20.4 km/hScattered Clouds
5:13 PM27 °C23 °C79 %1011.2 hPa16.1 kmNE (50°)20.4 km/hMostly Cloudy
5:18 PM27 °C23 °C79 %1011.2 hPa16.1 kmENE (60°)20.4 km/hScattered Clouds
5:37 PM27 °C24 °C84 %1011.2 hPa14.5 kmENE (60°)20.4 km/hRainLight Rain
5:47 PM26 °C24 °C89 %1011.2 hPa16.1 kmENE (60°)20.4 km/hRainLight Rain
5:49 PM26 °C23 °C83 %1011.2 hPa16.1 kmNE (50°)20.4 km/hScattered Clouds
5:58 PM25.9 °C23.3 °C85 %1010.5 hPa16.1 kmNE (50°)20.4 km/h0 mmScattered Clouds
6:33 PM26 °C23 °C83 %1011.9 hPa16.1 kmENE (60°)18.5 km/hMostly Cloudy
6:38 PM26 °C23 °C83 %1011.9 hPa16.1 kmNE (50°)20.4 km/hScattered Clouds
6:58 PM26.1 °C22.5 °C80 %1011.2 hPa16.1 kmNE (50°)20.4 km/hScattered Clouds
7:38 PM26 °C23 °C83 %1012.5 hPa16.1 kmENE (60°)20.4 km/hMostly Cloudy
7:43 PM26 °C23 °C83 %1012.5 hPa16.1 kmNE (50°)18.5 km/hMostly Cloudy
7:58 PM26.3 °C22.5 °C79 %1011.9 hPa16.1 kmNE (50°)18.5 km/hOvercast
8:23 PM26 °C23 °C83 %1012.9 hPa16.1 kmENE (60°)18.5 km/hMostly Cloudy
8:33 PM26 °C23 °C83 %1012.9 hPa16.1 kmNE (50°)20.4 km/hOvercast
8:38 PM26 °C23 °C83 %1012.9 hPa16.1 kmNE (50°)22.2 km/hOvercast
8:53 PM26 °C23 °C83 %1013.2 hPa16.1 kmNE (50°)20.4 km/hOvercast
8:58 PM26.3 °C22.9 °C81 %1012.2 hPa16.1 kmENE (60°)20.4 km/hMostly Cloudy
9:08 PM26 °C23 °C83 %1013.2 hPa16.1 kmNE (50°)16.7 km/hMostly Cloudy
9:23 PM26 °C23 °C83 %1013.2 hPa16.1 kmNE (50°)22.2 km/hMostly Cloudy
9:28 PM26 °C23 °C83 %1013.2 hPa16.1 kmENE (60°)20.4 km/hMostly Cloudy
9:38 PM26 °C23 °C83 %1013.5 hPa16.1 kmENE (70°)29.6 km/h37 km/hMostly Cloudy
9:40 PM26 °C23 °C83 %1013.5 hPa14.5 kmENE (70°)27.8 km/h37 km/hRainLight Rain
9:55 PM24 °C23 °C94 %1013.5 hPa11.3 kmENE (70°)24.1 km/hRainLight Rain
9:56 PM24 °C23 °C94 %1013.5 hPa12.9 kmENE (70°)24.1 km/hOvercast
9:58 PM24 °C23 °C94 %1012.9 hPa12.9 kmENE (60°)24.1 km/h2.54 mmOvercast
10:01 PM24 °C23 °C94 %1013.5 hPa14.5 kmENE (60°)25.9 km/hRainLight Rain
10:06 PM24 °C23 °C94 %1013.5 hPa11.3 kmNE (50°)24.1 km/hRainLight Rain
10:14 PM25 °C23 °C89 %1013.5 hPa16.1 kmNE (40°)22.2 km/hMostly Cloudy
10:58 PM25.1 °C23.4 °C90 %1012.9 hPa16.1 kmNE (50°)22.2 km/h0.25 mmMostly Cloudy
11:58 PM24.5 °C22.7 °C90 %1012.2 hPa16.1 kmNE (40°)14.8 km/hPartly Cloudy
Hourly data recorded from PGUA, located 0 kilometers away from Merizo, Guam







STORIES FROM OUR PARTNERS